START 1 DEB, 25284

Orbit data source: Space-Track

START 1 DEB, 25284 is space debris in LEO originally from a launch on Thu, 25 Mar 1993 UTC launched from the Plesetsk Missile And Space Complex (PKMTR). Debris objects in space refer to the collection of defunct objects orbiting the Earth. Examples of debris include non-operational satellites, rocket bodies, and fragments generated from explosions, collisions, or faulty payload assembly.

Loading next visibility...
Identifier
25284, 1993-014F
Orbit
LEO
Country
Flag of CISCIS
Related business
Manufacturer
Kompleks-MIT
Mission
Spacecraft
Bus & Motor
Unknown
Mass
Unknown
Launch date (UTC)
1993-03-25 (33 years ago)
Launch vehicle
Unknown
Launch site
Plesetsk Missile And Space Complex (PKMTR)
Object type
Payload
Rocket body
Debris
Shape & HBR
Unknown shape, 0.2 m
Radar Cross Section
Medium (>0.1 m² and <1 m²)

Expand to show TLE details & history
Last TLE update: 10 hours ago

TLE from 10 hours ago
0 START 1 DEB
1 25284U 93014F   25294.55261640  .00000728  00000-0  24925-3 0  9991
2 25284  75.7604 314.2762 0179180 239.4001 240.5981 14.28714474435005
Epoch: 2025-10-21T13:15Z
TLE epoch observation values (Epoch: 2025-10-21T13:15:46.056Z)
Latitude
58.75158°
Longitude
-119.48922°
Altitude
870.55 km
Speed
7.389 km/s
True Right ascension
07h 18m 45s
True Declination
58° 36' 04"
Sunlit
Object was in daylight at epoch
Visualization orbit readout
Latitude
Unknown
Longitude
Unknown
Altitude
Unknown
Speed
Unknown
Apparent Right ascension
Unknown
Apparent Declination
Unknown
Sunlit
N/A
Visualization observer readout
Local Sidereal Time
17:55:37
Azimuth
Unknown
Elevation
Unknown
Doppler factor
Unknown
Orbital elements
Apogee altitude
922.024 km
Perigee altitude
665.021 km
Semi-major axis
7,171.66 km
Eccentricity
0.01792
Inclination
75.7604°
RAAN
314.2762°
Arg. of periapsis
239.4001°
True anomaly
238.82906°
Mean anomaly
240.5981°
Eccentric anomaly
239.71161°
Mean motion
3.57366 °/min
Orbital period
100.74 mins
BSTAR
0.00024925
Loading maneuver chart data...
Computing Atmospheric mass density...
Loading historical data...
Loading historical data...
Loading historical data...
Loading historical data...
Loading historical data...
Loading historical data...
Loading historical data...

Documentation

Showing up to 5 results
|